Regional Weather Roundup
Issued by NWS

Home | Current Version | Previous Version | Graphics & Text | Print | Product List | Glossary On
Versions: 1 2 3 4 5 6 7 8 9 10 11 12 13 14 15 16 17 18 19 20 21 22 23 24 25 26 27 28 29 30 31 32 33 34 35 36 37 38 39 40 41 42 43 44 45 46 47 48 49 50
101
ASUS44 KJAN 300203
RWRMS

MISSISSIPPI HOURLY WEATHER ROUNDUP
NATIONAL WEATHER SERVICE JACKSON MS
900 PM CDT SUN MAR 29 2015

NOTE: "FAIR: INDICATES FEW OR NO CLOUDS BELOW 12,000 FEET WITH NO
SIGNIFICANT WEATHER AND/OR OBSTRUCTIONS TO VISIBILITY.

MSZ001>002-007>008-010>013-018>021-025>028-034>036-300300-
NORTHWEST MISSISSIPPI

CITY           SKY/WX    TMP DP  RH WIND       PRES   REMARKS
CLARKSDALE     FAIR      64  57  77 S6        30.06R
CLEVELAND      FAIR      68  60  74 S10       30.04S
GREENWOOD      PTCLDY    65  52  62 S6        30.07R
GREENVILLE     CLEAR     67  57  70 S9        30.04R
OLIVE BRANCH   CLOUDY    63  52  67 CALM      30.06S
OXFORD         FAIR      59  48  67 S6        30.08R
TUNICA         PTCLDY    59  54  82 SE3       30.06R
$$

MSZ003>006-009-014>017-022>024-029>033-037>039-300300-
NORTHEAST MISSISSIPPI

CITY           SKY/WX    TMP DP  RH WIND       PRES   REMARKS
COLUMBUS AFB   CLEAR     57  46  67 S8        30.10S HAZE
CORINTH        FAIR      57  45  62 S6        30.08R
GOLDN TRIANGLE CLEAR     63  46  55 S12       30.11R
STARKVILLE     FAIR      63  50  63 S7        30.10S
TUPELO         CLEAR     61  45  55 S7        30.09R
$$

MSZ040-058-300300-
CENTRAL MISSISSIPPI

CITY           SKY/WX    TMP DP  RH WIND       PRES   REMARKS
JACKSON INTL   CLEAR     69  56  62 S14       30.12R
JACKSON HAWKNS PTCLDY    70  56  61 S15       30.12R
MERIDIAN KEY   CLEAR     64  54  69 S18G28    30.17R
MERIDIAN NAS   PTCLDY    67  53  60 S13G21    30.14R
RAYMOND        FAIR      72  66  83 S9        30.11R
VICKSBURG      CLEAR     72  54  53 S7        30.09R
$$

MSZ059>079-300300-
SOUTH MISSISSIPPI

CITY           SKY/WX    TMP DP  RH WIND       PRES   REMARKS
BROOKHAVEN     FAIR      68  61  77 S9        30.18R
HATTIESBURG    MOCLDY    65  58  78 S9        30.22R
MCCOMB         CLEAR     66  60  81 S10       30.18R
NATCHEZ        CLEAR     72  54  53 S9        30.15R
PINE BELT      PTCLDY    64  55  72 S13       30.21S
$$

MSZ080>082-300300-
COASTAL MISSISSIPPI

CITY           SKY/WX    TMP DP  RH WIND       PRES   REMARKS
BILOXI         NOT AVBL
PASCAGOULA     CLOUDY    65  60  84 SE5       30.25R
GULFPORT       CLOUDY    67  61  81 S8        30.23R
$$



USA.gov is the U.S. government's official web portal to all federal, state and local government web resources and services.